カタログに戻る

RESURS P5

運用中科学SSO
NORAD 62430·PAYLOAD·🇷🇺 Russia

打ち上げ Dec 25, 2024 から Baikonur Cosmodrome

Loading…

次のパス (今後24時間)

TLE

最新Source: Space-Track

元期: Sep 14, 2026, 13:39 UTC

1 62430U 24250A   26257.56924972  .00002432  00000-0  79912-4 0  9997
2 62430  97.2768 181.3879 0000820 111.0316 249.1014 15.32510926 96231

AllMySatでRESURS P5をリアルタイム追跡

Download on the App Store